Estación Meteorológica Peña el Pijo (Robertgarden) [ 07/11/20 21:33:03 CEST ]

Fecha Hora Presion(HPa) Temp (°C) Humedad % Rocio (°C) Viento ( m/s) Direccion Lluvia 1Hora(mm) Lluvia 24H(mm) LLuvia Total(mm)
2020-Mar-24 01:09:24 1003.000 - - - - N     39.88
2020-Mar-24 02:09:35 1002.800 - - - - N     39.88
2020-Mar-24 03:09:59 1002.000 - - - - N     39.88
2020-Mar-24 04:10:24 1002.200 - - - - N     39.88
2020-Mar-24 05:09:41 1002.100 - - - - N     39.88
2020-Mar-24 06:10:58 1002.000 - - - - N     39.88
2020-Mar-24 07:09:16 1002.100 - - - - N     39.88
2020-Mar-24 08:08:55 1002.100 - - - - N     39.88
2020-Mar-24 09:09:17 1002.400 - - - - N     39.88
2020-Mar-24 10:09:06 1002.600 - - - - N     39.88
2020-Mar-24 11:09:23 1003.000 - - - - N     39.88
2020-Mar-24 12:09:10 1003.200 - - - - N     39.88
2020-Mar-24 13:09:26 1002.900 - - - - N     39.88
2020-Mar-24 14:09:09 1002.600 - - - - N     39.88
2020-Mar-24 15:09:08 1002.100 - - - - N     39.88
2020-Mar-24 16:09:09 1002.000 - - - - N     39.88
2020-Mar-24 17:09:31 1002.200 - - - - N     39.88
2020-Mar-24 18:09:36 1002.200 - - - - N     39.88
2020-Mar-24 19:09:24 1002.600 - - - - N     39.88
2020-Mar-24 20:09:11 1003.200 - - - - N     39.88
2020-Mar-24 21:09:22 1004.000 - - - - N     39.88
2020-Mar-24 22:09:22 1004.200 - - - - N     39.88
2020-Mar-24 23:08:49 1004.500 - - - - N     39.88

Temperatura Máxima:    Temperatura Mínima:
Presión Máxima:1004.500 Hpa    Presión Mínima:1002.000 Hpa


Volver